Погода в Первомайском

Россия / Амурская область     55°06′39″N   124°49′52″E
темп.,
°C
ветер,
м/с
пор.,
м/с
влажн.,
%
обл.,
%
осадки,
мм/ч
давл.,
гПа
погр.,
м
8 марта, пн
пн800:00−22ююз119960 0.0 102220
03:00−19ю129680 0.0 102023
06:00−15ююв1195100 0.0 101745
09:00−14ююв1294100 0.1 1016150
12:00−10ююв2489100 0.1 1012427
15:00−9ююз1295100 1.5 1009328
18:00−10юз1496100 1.7 1008379
21:00−14ссз1197100 1.8 101020
9 марта, вт
вт900:00−18зсз11100100 0.0 101120
03:00−14зсз299095 0.1 1013286
06:00−13сз41183100 0.0 1015487
09:00−12сз5128094 0.0 1018629
12:00−9сз69740 0.0 10201327
15:00−9зсз578048 0.1 10211100
18:00−12зюз228757 0.0 102121
21:00−16ююз228528 0.0 102220
10 марта, ср
ср1000:00−16ю228849 0.0 102030
03:00−14ю239075 0.0 101876
06:00−14ю1193100 0.0 101621
09:00−12юз1295100 0.7 1015184
12:00−9зсз3792100 1.1 1015599
15:00−6сз6971100 1.1 10161676
18:00−10зсз4117651 0.0 1020399
21:00−17з117925 0.0 102420
11 марта, чт
чт1100:00−18ююз117833 0.0 102620
03:00−19ю118157 0.0 102720
06:00−21ю118445 0.0 102620
09:00−16сз008937 0.0 102534
12:00−10зсз238610 0.0 1024401
15:00−7сз248728 0.0 1023520
18:00−10зсз11899 0.0 102421
21:00−14юз12884 0.0 102721
12 марта, пт
пт1200:00−16ююз119348 0.0 102720
03:00−14ю129257 0.0 102521
06:00−12ю2693100 0.0 1023162
09:00−8юз2119190 0.0 1021490
12:00−5зюз3790100 0.0 1018467
15:00−3юз3690100 0.0 1016455
18:00−4ююз229349 0.0 101544
21:00−7ю249554 0.0 1014111